Location: Gro�sch�nbrunn
(49.5760°N, 11.8868°E)
Time: 09:10:18
(UTC+00:00)

N. Korean satellite - Pass Details

Date: 03 December 2020
Orbit: 453 x 502 km, 97.2° (Epoch: 16 January)

Event Time Altitude Azimuth Distance (km) Brightness Sun altitude
Rises 04:47:45 0° 13° (NNE) 2,568 10.3 -19.0°
Reaches altitude 10° 04:49:49 10° 14° (NNE) 1,690 9.3 -18.7°
Maximum altitude 04:53:27 82° 101° (ESE) 506 6.6 -18.1°
Drops below altitude 10° 04:57:07 10° 191° (S) 1,697 9.3 -17.5°
Sets 04:59:12 0° 192° (SSW) 2,580 10.3 -17.2°
